DW4542 Weather Reports


time (UTC)temp
C
wind
direction
speed
KPH
gust
KPH
rain 1hr
cm
rain 24hr
cm
rain mn
cm
humidity
%
barometer
mb
20260504190652 26 61 0.0 4.8 0.00 0.00 0.00 32 1015.9
20260504185652 25 320 0.0 6.4 0.00 0.00 0.00 36 1016.1
20260504185153 25 306 0.0 6.4 0.00 0.00 0.00 36 1016.2
20260504184652 25 306 1.6 4.8 0.00 0.00 0.00 36 1016.3
20260504183652 25 133 0.0 6.4 0.00 0.00 0.00 35 1016.3
20260504183152 25 342 4.8 9.7 0.00 0.00 0.00 34 1016.4
20260504182652 24 329 3.2 11.3 0.00 0.00 0.00 35 1016.5
20260504182152 24 58 0.0 11.3 0.00 0.00 0.00 36 1016.5
20260504181652 25 312 4.8 8.0 0.00 0.00 0.00 36 1016.5
20260504181152 25 324 3.2 6.4 0.00 0.00 0.00 35 1016.7
20260504180652 25 329 4.8 6.4 0.00 0.00 0.00 34 1016.9
20260504180152 25 37 0.0 6.4 0.00 0.00 0.00 35 1017.0
20260504175652 25 324 3.2 6.4 0.00 0.00 0.00 37 1017.0
20260504175152 24 308 1.6 4.8 0.00 0.00 0.00 37 1017.0
20260504174152 24 11 1.6 6.4 0.00 0.00 0.00 37 1017.1
20260504173651 24 297 1.6 6.4 0.00 0.00 0.00 36 1017.1
20260504172651 25 290 1.6 3.2 0.00 0.00 0.00 37 1017.1
20260504172151 25 72 0.0 3.2 0.00 0.00 0.00 39 1017.2
20260504171651 25 95 0.0 3.2 0.00 0.00 0.00 37 1017.3
20260504171151 25 208 0.0 4.8 0.00 0.00 0.00 36 1017.4
20260504170651 24 63 3.2 4.8 0.00 0.00 0.00 36 1017.5
20260504170151 24 96 0.0 4.8 0.00 0.00 0.00 39 1017.5
20260504160151 21 301 0.0 4.8 0.00 0.00 0.00 43 1017.9
20260504151150 21 70 1.6 3.2 0.00 0.00 0.00 48 1018.5
20260504150150 21 86 0.0 1.6 0.00 0.00 0.00 46 1018.5
20260504141149 17 100 0.0 0.0 0.00 0.00 0.00 72 1018.7
20260504140649 17 101 0.0 0.0 0.00 0.00 0.00 70 1018.6
20260504140149 17 114 0.0 0.0 0.00 0.00 0.00 73 1018.5
20260504130648 12 8 0.0 0.0 0.00 0.00 0.00 92 1018.4
20260504130148 12 8 0.0 0.0 0.00 0.00 0.00 93 1018.4
20260504120148 8 8 0.0 0.0 0.00 0.00 0.00 93 1018.2
20260504110147 7 8 0.0 0.0 0.00 0.00 0.00 92 1018.0
20260504100147 7 8 0.0 0.0 0.00 0.00 0.00 92 1017.9
20260504081646 8 8 0.0 0.0 0.00 0.00 0.00 91 1018.0
20260504081146 8 9 0.0 0.0 0.00 0.00 0.00 91 1018.1
20260504080646 8 9 0.0 0.0 0.00 0.00 0.00 91 1018.1
20260504080145 8 8 0.0 0.0 0.00 0.00 0.00 91 1018.2
20260504070145 8 8 0.0 0.0 0.00 0.00 0.00 91 1018.3
20260504060145 9 343 0.0 0.0 0.00 0.00 0.00 90 1018.9
20260504050644 10 342 0.0 0.0 0.00 0.00 0.00 89 1019.0
20260504050214 10 342 0.0 0.0 0.00 0.00 0.00 89 1019.1
20260504045644 10 342 0.0 0.0 0.00 0.00 0.00 89 1019.0
20260504044644 10 342 0.0 0.0 0.00 0.00 0.00 88 1019.0
20260504044144 10 342 0.0 0.0 0.00 0.00 0.00 88 1019.0
20260504043144 10 342 0.0 0.0 0.00 0.00 0.00 87 1018.9
20260504042144 11 342 0.0 0.0 0.00 0.00 0.00 86 1019.0
20260504041643 11 342 0.0 0.0 0.00 0.00 0.00 86 1018.9
20260504041143 11 342 0.0 0.0 0.00 0.00 0.00 84 1019.0
20260504040143 11 342 0.0 0.0 0.00 0.00 0.00 83 1018.9
20260504035643 11 342 0.0 0.0 0.00 0.00 0.00 82 1018.8
20260504035143 11 342 0.0 0.0 0.00 0.00 0.00 82 1018.7
20260504034643 11 342 0.0 0.0 0.00 0.00 0.00 80 1018.6
20260504034143 11 342 0.0 0.0 0.00 0.00 0.00 80 1018.6
20260504033643 11 342 0.0 0.0 0.00 0.00 0.00 81 1018.6
20260504033143 11 342 0.0 0.0 0.00 0.00 0.00 81 1018.8
20260504032643 11 342 0.0 0.0 0.00 0.00 0.00 81 1018.9
20260504032143 11 342 0.0 0.0 0.00 0.00 0.00 80 1018.9
20260504031643 11 342 0.0 0.0 0.00 0.00 0.00 80 1018.8
20260504031143 11 342 0.0 0.0 0.00 0.00 0.00 80 1018.9
20260504030643 12 342 0.0 0.0 0.00 0.00 0.00 80 1018.8
20260504030142 12 342 0.0 0.0 0.00 0.00 0.00 79 1018.8
20260504025643 12 342 0.0 0.0 0.00 0.00 0.00 80 1018.7
20260504025143 12 342 0.0 0.0 0.00 0.00 0.00 80 1018.8
20260504024643 12 342 0.0 0.0 0.00 0.00 0.00 79 1018.7
20260504024143 12 342 0.0 0.0 0.00 0.00 0.00 78 1018.7
20260504023643 12 342 0.0 0.0 0.00 0.00 0.00 76 1018.7
20260504023143 13 342 0.0 0.0 0.00 0.00 0.00 75 1018.8
20260504022642 13 342 0.0 0.0 0.00 0.00 0.00 74 1018.7
20260504022142 13 342 0.0 0.0 0.00 0.00 0.00 74 1018.7
20260504021642 13 342 0.0 0.0 0.00 0.00 0.00 72 1018.7
20260504021142 13 342 0.0 0.0 0.00 0.00 0.00 71 1018.6
20260504020642 13 342 0.0 0.0 0.00 0.00 0.00 73 1018.5
20260504020142 14 342 0.0 0.0 0.00 0.00 0.00 70 1018.3
20260504015642 14 342 0.0 0.0 0.00 0.00 0.00 71 1018.3
20260504015142 14 342 0.0 0.0 0.00 0.00 0.00 71 1018.2
20260504014642 14 342 0.0 0.0 0.00 0.00 0.00 72 1018.1
20260504013642 15 342 0.0 0.0 0.00 0.00 0.00 71 1018.1
20260504013142 15 342 0.0 0.0 0.00 0.00 0.00 71 1018.0
20260504012642 15 344 0.0 0.0 0.00 0.00 0.00 69 1017.9
20260504011641 15 345 0.0 0.0 0.00 0.00 0.00 67 1017.6
20260504011141 15 345 0.0 0.0 0.00 0.00 0.00 68 1017.6
20260504010711 15 345 0.0 0.0 0.00 0.00 0.00 67 1017.5
20260504005641 16 345 0.0 0.0 0.00 0.00 0.00 64 1017.3
20260504005141 16 345 0.0 0.0 0.00 0.00 0.00 60 1017.3
20260504004711 16 345 0.0 0.0 0.00 0.00 0.00 59 1017.1
20260504004211 16 345 0.0 0.0 0.00 0.00 0.00 58 1017.1
20260504003711 17 345 0.0 0.0 0.00 0.00 0.00 56 1017.1
20260504003141 17 345 0.0 0.0 0.00 0.00 0.00 56 1017.1
20260504002641 17 345 0.0 0.0 0.00 0.00 0.00 54 1017.0
20260504002141 18 345 0.0 0.0 0.00 0.00 0.00 54 1017.1
20260504001710 18 344 0.0 0.0 0.00 0.00 0.00 54 1017.0
20260504001210 18 345 0.0 0.0 0.00 0.00 0.00 52 1017.1
20260504000641 19 345 0.0 0.0 0.00 0.00 0.00 51 1017.1
20260504000141 19 345 0.0 0.0 0.00 0.00 0.00 50 1017.1
20260503235640 20 345 0.0 0.0 0.00 0.00 0.00 50 1017.0
20260503234640 20 345 0.0 1.6 0.00 0.00 0.00 46 1017.0
20260503234140 20 345 0.0 0.0 0.00 0.00 0.00 44 1016.9
20260503233710 21 345 0.0 0.0 0.00 0.00 0.00 43 1016.9
20260503233210 21 345 0.0 3.2 0.00 0.00 0.00 41 1017.0
20260503232640 21 345 0.0 4.8 0.00 0.00 0.00 41 1016.9
20260503232210 21 301 0.0 4.8 0.00 0.00 0.00 35 1017.1
20260503231139 22 319 0.0 4.8 0.00 0.00 0.00 34 1017.2
20260503230639 22 321 1.6 4.8 0.00 0.00 0.00 34 1017.2
20260503230210 22 302 1.6 6.4 0.00 0.00 0.00 35 1017.2
20260503225639 22 331 1.6 6.4 0.00 0.00 0.00 34 1017.2
20260503224139 22 304 0.0 6.4 0.00 0.00 0.00 33 1017.1
20260503223709 22 333 3.2 8.0 0.00 0.00 0.00 36 1017.1
20260503223209 22 317 3.2 8.0 0.00 0.00 0.00 31 1017.0
20260503222639 22 316 1.6 8.0 0.00 0.00 0.00 34 1017.0
20260503221709 22 339 1.6 4.8 0.00 0.00 0.00 35 1016.9
20260503221209 22 306 3.2 6.4 0.00 0.00 0.00 36 1016.9
20260503220709 22 28 0.0 6.4 0.00 0.00 0.00 34 1017.0
20260503220209 22 314 4.8 6.4 0.00 0.00 0.00 33 1016.9
20260503215639 22 315 1.6 6.4 0.00 0.00 0.00 33 1016.9
20260503215209 22 321 1.6 6.4 0.00 0.00 0.00 34 1016.9
20260503214709 22 354 0.0 6.4 0.00 0.00 0.00 34 1017.0
20260503213208 22 303 4.8 8.0 0.00 0.00 0.00 33 1017.3
20260503212708 22 353 1.6 9.7 0.00 0.00 0.00 33 1017.2
20260503212208 22 316 8.0 9.7 0.00 0.00 0.00 34 1017.2
20260503211208 22 329 4.8 6.4 0.00 0.00 0.00 32 1017.4
20260503210708 22 260 0.0 8.0 0.00 0.00 0.00 34 1017.4
20260503210208 22 310 3.2 8.0 0.00 0.00 0.00 33 1017.4
20260503205708 23 29 1.6 11.3 0.00 0.00 0.00 33 1017.5
20260503205208 22 329 1.6 11.3 0.00 0.00 0.00 33 1017.6
20260503203708 22 314 3.2 8.0 0.00 0.00 0.00 33 1017.9
20260503203207 22 318 4.8 9.7 0.00 0.00 0.00 31 1018.0
20260503202707 22 295 3.2 9.7 0.00 0.00 0.00 33 1018.2
20260503202207 22 304 4.8 6.4 0.00 0.00 0.00 37 1018.1
20260503201707 22 323 1.6 6.4 0.00 0.00 0.00 31 1018.3
20260503201207 22 328 3.2 8.0 0.00 0.00 0.00 33 1018.4
20260503200707 22 310 3.2 8.0 0.00 0.00 0.00 35 1018.5
20260503200207 22 338 3.2 9.7 0.00 0.00 0.00 33 1018.5
20260503195707 22 313 6.4 11.3 0.00 0.00 0.00 31 1018.5
20260503195207 22 313 6.4 11.3 0.00 0.00 0.00 35 1018.7
20260503194707 22 332 4.8 11.3 0.00 0.00 0.00 35 1018.6
20260503193707 22 315 4.8 17.7 0.00 0.00 0.00 33 1018.8
20260503193207 22 319 6.4 17.7 0.00 0.00 0.00 35 1018.8
20260503192707 22 290 4.8 11.3 0.00 0.00 0.00 34 1018.8
20260503192207 22 306 3.2 8.0 0.00 0.00 0.00 36 1018.9
20260503191207 22 272 0.0 6.4 0.00 0.00 0.00 34 1019.0